Location: Newark
(54.2500°N, 9.1833°E)
Time: 23:18:49
(UTC+00:00)

Vanguard 1 Rocket - All Passes

Search period start: 08 December 2019 00:00
Search period end: 18 December 2019 00:00
Orbit: 650 x 4226 km, 34.3° (Epoch: 07 December)

Date Brightness Start Highest point End Pass type
(mag) Time Alt. Az. Time Alt. Az. Time Alt. Az.
08 Dec - 01:07:35 10° SW 01:08:57 11° SSW 01:10:12 10° SSW night (unlit)
08 Dec - 19:01:59 10° S 19:08:43 13° SSE 19:14:06 10° SE visible
08 Dec - 21:25:02 10° SW 21:34:16 21° S 21:40:28 10° SE visible
08 Dec - 23:53:03 10° SW 23:58:33 17° SSW 00:02:38 10° SSE night (unlit)
09 Dec - 20:12:24 10° SSW 20:22:51 20° SSE 20:29:58 10° SE visible
09 Dec - 22:39:31 10° SW 22:47:51 21° S 22:53:25 10° SE visible
10 Dec - 19:00:32 10° SSW 19:11:06 18° SSE 19:18:43 10° ESE visible
10 Dec - 21:26:04 10° SW 21:36:46 24° S 21:43:37 10° SE visible
10 Dec - 23:55:09 10° WSW 00:00:58 17° SSW 00:05:14 10° SSE night (unlit)
11 Dec - 17:50:21 10° S 17:59:07 15° SSE 18:06:06 10° ESE visible
11 Dec - 20:12:49 10° SW 20:25:17 24° S 20:33:20 10° ESE visible
11 Dec - 22:41:12 10° WSW 22:50:18 23° SSW 22:56:15 10° SSE visible
12 Dec - 19:00:08 10° SSW 19:13:26 23° SSE 19:22:27 10° ESE visible
12 Dec - 21:27:19 10° SW 21:39:13 27° S 21:46:36 10° SE visible
12 Dec - 23:57:25 10° WSW 00:03:17 16° SSW 00:07:38 10° S night (unlit)
13 Dec - 17:48:35 10° S 18:01:18 19° SSE 18:10:40 10° ESE visible
13 Dec - 20:13:34 10° SW 20:27:40 28° S 20:36:27 10° ESE visible
13 Dec - 22:43:00 10° WSW 22:52:40 23° SSW 22:58:57 10° SSE visible
14 Dec - 16:39:15 10° S 16:49:03 15° SE 16:57:08 10° ESE visible
14 Dec - 19:00:16 10° SSW 19:15:43 27° SSE 19:25:46 10° ESE visible
14 Dec - 21:28:44 10° WSW 21:41:35 28° S 21:49:27 10° SE visible
14 Dec - 23:59:52 10° WSW 00:05:30 15° SW 00:09:46 10° S night (unlit)
15 Dec - 17:47:54 10° SSW 18:03:26 24° SSE 18:14:23 10° ESE visible
15 Dec - 20:14:34 10° SW 20:30:01 31° S 20:39:24 10° ESE visible
15 Dec - 22:44:55 10° WSW 22:54:57 23° SSW 23:01:29 10° SSE visible
16 Dec - 16:37:03 10° S 16:51:01 19° SSE 17:01:52 10° ESE visible
16 Dec - 19:00:48 10° SW 19:17:57 31° S 19:28:51 10° ESE visible
16 Dec - 21:30:17 10° WSW 21:43:54 29° SSW 21:52:10 10° SE visible
17 Dec - 00:02:36 10° WSW 00:07:36 14° SW 00:11:33 10° SSW night (unlit)
17 Dec - 15:29:09 10° SSE 15:38:39 14° SE 15:46:57 10° ESE visible
17 Dec - 17:47:49 10° SSW 18:05:32 28° SSE 18:17:41 10° ESE visible
17 Dec - 20:15:46 10° WSW 20:32:17 33° S 20:42:14 10° SE visible
17 Dec - 22:46:56 10° WSW 22:57:07 22° SSW 23:03:51 10° SSE visible
